Погода в Никольской Слободе

Россия / Брянская область     53°30′19″N   33°35′48″E
темп.,
°C
ветер,
м/с
пор.,
м/с
влажн.,
%
обл.,
%
осадки,
мм/ч
давл.,
гПа
погр.,
м
11 апреля, вс
вс1100:00+3ююз310750 0.0 1026171
03:00+3ююз310760 0.0 1027172
06:00+2ююз36780 0.0 102790
09:00+7ююз35600 0.0 1029274
12:00+12ююз34460 0.0 1029829
15:00+14ю33420 0.0 10291275
18:00+13юв22520 0.0 102977
21:00+8вюв11620 0.0 103010
12 апреля, пн
пн1200:00+6вюв22710 0.0 103119
03:00+5в23751 0.0 103135
06:00+3всв368073 0.0 103098
09:00+8всв51060100 0.0 1029452
12:00+11в5751100 0.0 1027718
15:00+10вюв3679100 0.4 1026511
18:00+11в2480100 0.3 1024219
21:00+9всв2390100 0.3 102452
13 апреля, вт
вт1300:00+8в2294100 0.0 102330
03:00+8в2293100 0.0 102214
06:00+8св2293100 0.0 102212
09:00+10в2587100 0.0 1021138
12:00+16юв4763100 0.0 1020776
15:00+18юв5856100 0.0 10191446
18:00+15ююв386772 0.0 1019327
21:00+13ююв2680100 0.1 1019146
14 апреля, ср
ср1400:00+12ююв3984100 0.0 1019259
03:00+11ююв2789100 0.0 1019217
06:00+10ююв259180 0.0 1019144
09:00+11юв3785100 0.0 1018308
12:00+15ююв4866100 0.3 1018958
15:00+15ююв2470100 0.9 1017342
18:00+13юз2382100 0.3 101681
21:00+10ююз1191100 0.4 101710
15 апреля, чт
чт1500:00+10ююв119099 0.0 101710
03:00+10сз1193100 0.4 101616
06:00+9всв2296100 0.3 101622
09:00+12вюв2481100 0.4 1016280
12:00+15всв3463100 0.3 1015626
15:00+16св2352100 1.6 1014881
18:00+14ссв4969100 0.3 1013354
21:00+12ссв61475100 0.3 1013557